CW7832 Weather Reports


Display with metric or nautical units.
time (UTC)temp
F
wind
direction
speed
MPH
gust
MPH
rain 1hr
in
rain 24hr
in
rain mn
in
humidity
%
barometer
mb
20221004032503 37 60 0.0 0.0 0.00 0.00 0.00 93 1025.3
20221004031502 37 59 0.0 0.0 0.00 0.00 0.00 93 1025.4
20221004030501 37 59 0.0 0.0 0.00 0.00 0.00 93 1025.4
20221004025503 37 60 0.0 0.0 0.00 0.00 0.00 93 1025.4
20221004025003 37 60 0.0 0.0 0.00 0.00 0.00 93 1025.3
20221004023501 37 59 0.0 0.0 0.00 0.00 0.00 93 1025.5
20221004023004 38 59 0.0 0.0 0.00 0.00 0.00 92 1025.5
20221004021503 38 60 0.0 0.0 0.00 0.00 0.00 91 1025.5
20221004020502 38 59 0.0 0.0 0.00 0.00 0.00 92 1025.7
20221004020003 39 59 0.0 0.0 0.00 0.00 0.00 92 1025.6
20221004014505 39 59 0.0 0.0 0.00 0.00 0.00 91 1025.9
20221004014501 39 58 0.0 0.0 0.00 0.00 0.00 92 1025.7
20221004012501 40 60 0.0 0.0 0.00 0.00 0.00 91 1026.0
20221004011501 40 59 0.0 0.0 0.00 0.00 0.00 90 1025.9
20221004010501 40 61 0.0 0.0 0.00 0.00 0.00 90 1025.9
20221004005502 41 59 0.0 0.0 0.00 0.00 0.00 90 1026.0
20221004004503 41 60 0.0 0.0 0.00 0.00 0.00 90 1026.0
20221004004002 42 60 0.0 0.0 0.00 0.00 0.00 90 1026.0
20221004002502 42 59 0.0 0.0 0.00 0.00 0.00 89 1026.0
20221004001501 42 59 0.0 0.0 0.00 0.00 0.00 88 1026.0
20221004000501 42 59 0.0 0.0 0.00 0.00 0.00 86 1026.0
20221003235502 43 59 0.0 0.0 0.00 0.00 0.00 85 1026.0
20221003234501 44 60 0.0 0.0 0.00 0.00 0.00 84 1026.1
20221003233502 45 59 0.0 0.0 0.00 0.00 0.00 82 1026.2
20221003232509 47 59 0.0 0.0 0.00 0.00 0.00 79 1026.1
20221003232501 46 59 0.0 0.0 0.00 0.00 0.00 81 1026.2
20221003230501 48 60 0.0 0.0 0.00 0.00 0.00 78 1026.1
20221003225501 49 59 0.0 0.0 0.00 0.00 0.00 73 1026.2
20221003225003 50 59 0.0 0.0 0.00 0.00 0.00 72 1026.4
20221003223502 51 59 1.0 3.0 0.00 0.00 0.00 70 1026.4
20221003223002 51 59 2.0 5.0 0.00 0.00 0.00 69 1026.4
20221003221501 52 61 3.0 5.0 0.00 0.00 0.00 68 1026.3
20221003220502 53 63 4.0 9.0 0.00 0.00 0.00 67 1026.5
20221003215501 53 62 3.0 7.0 0.00 0.00 0.00 66 1026.5
20221003214502 53 58 4.0 9.0 0.00 0.00 0.00 65 1026.5
20221003213501 54 65 4.0 8.0 0.00 0.00 0.00 65 1026.5
20221003213003 54 58 3.0 7.0 0.00 0.00 0.00 64 1026.5
20221003211501 55 57 4.0 9.0 0.00 0.00 0.00 63 1026.8
20221003210501 55 82 4.0 7.0 0.00 0.00 0.00 64 1026.9
20221003205502 55 73 4.0 9.0 0.00 0.00 0.00 63 1026.9
20221003204505 55 80 5.0 10.0 0.00 0.00 0.00 63 1027.1
20221003203501 55 81 5.0 10.0 0.00 0.00 0.00 60 1026.9
20221003203003 55 80 5.0 9.0 0.00 0.00 0.00 60 1027.1
20221003201501 55 73 5.0 10.0 0.00 0.00 0.00 59 1027.0
20221003201002 55 67 4.0 9.0 0.00 0.00 0.00 58 1027.1
20221003195502 56 62 5.0 9.0 0.00 0.00 0.00 58 1027.0
20221003194502 56 82 5.0 10.0 0.00 0.00 0.00 56 1027.0
20221003194002 56 65 5.0 10.0 0.00 0.00 0.00 56 1027.1
20221003192501 56 59 6.0 12.0 0.00 0.00 0.00 58 1027.1
20221003191501 56 67 5.0 11.0 0.00 0.00 0.00 57 1027.1
20221003190502 56 57 6.0 13.0 0.00 0.00 0.00 57 1027.3
20221003190004 57 59 7.0 14.0 0.00 0.00 0.00 56 1027.2
20221003184502 57 60 5.0 11.0 0.00 0.00 0.00 57 1027.2
20221003184002 57 68 6.0 12.0 0.00 0.00 0.00 56 1027.2
20221003182501 57 304 7.0 15.0 0.00 0.00 0.00 52 1027.3
20221003181501 57 73 7.0 14.0 0.00 0.00 0.00 52 1027.4
20221003181002 57 63 7.0 13.0 0.00 0.00 0.00 51 1027.6
20221003175501 57 55 8.0 15.0 0.00 0.00 0.00 48 1027.7
20221003174501 58 34 6.0 12.0 0.00 0.00 0.00 51 1027.9
20221003174006 58 91 8.0 14.0 0.00 0.00 0.00 52 1028.0
20221003173737 57 101 6.0 13.0 0.00 0.00 0.00 52 1028.1
20221003172002 58 77 7.0 14.0 0.00 0.00 0.00 51 1028.4
20221003170503 58 81 8.0 16.0 0.00 0.00 0.00 49 1028.6
20221003165501 58 86 7.0 14.0 0.00 0.00 0.00 50 1028.7
20221003164501 57 88 8.0 17.0 0.00 0.00 0.00 53 1028.8
20221003164002 57 87 6.0 13.0 0.00 0.00 0.00 55 1029.0
20221003163002 56 67 6.0 12.0 0.00 0.00 0.00 57 1029.0
20221003161500 56 119 7.0 13.0 0.00 0.00 0.00 56 1029.1
20221003155502 55 76 8.0 14.0 0.00 0.00 0.00 58 1029.1
20221003154501 55 66 7.0 15.0 0.00 0.00 0.00 64 1029.1
20221003154005 55 88 7.0 17.0 0.00 0.00 0.00 65 1029.1
20221003153002 55 96 7.0 15.0 0.00 0.00 0.00 64 1028.9
20221003151501 54 78 7.0 12.0 0.00 0.00 0.00 64 1029.0
20221003150501 54 92 10.0 15.0 0.00 0.00 0.00 66 1029.0
20221003150002 54 67 10.0 16.0 0.00 0.00 0.00 67 1029.1
20221003144503 54 74 8.0 16.0 0.00 0.00 0.00 67 1029.1
20221003143501 54 94 9.0 15.0 0.00 0.00 0.00 70 1029.0
20221003142506 53 77 7.0 13.0 0.00 0.00 0.00 72 1028.7
20221003142501 54 69 6.0 13.0 0.00 0.00 0.00 71 1028.8
20221003141002 52 81 7.0 13.0 0.00 0.00 0.00 73 1028.7
20221003140004 52 104 6.0 11.0 0.00 0.00 0.00 74 1028.7
20221003134502 51 72 5.0 14.0 0.00 0.00 0.00 78 1028.7
20221003133501 50 61 6.0 12.0 0.00 0.00 0.00 84 1028.6
20221003132500 49 51 4.0 9.0 0.00 0.00 0.00 92 1028.4
20221003131500 47 66 4.0 8.0 0.00 0.00 0.00 98 1028.3
20221003130501 45 83 2.0 6.0 0.00 0.00 0.00 98 1028.2
20221003125502 41 82 1.0 3.0 0.00 0.00 0.00 97 1028.1
20221003124500 37 81 0.0 3.0 0.00 0.00 0.00 97 1027.9
20221003123501 35 81 0.0 0.0 0.00 0.00 0.00 97 1027.8
20221003122502 34 82 0.0 0.0 0.00 0.00 0.00 97 1027.8
20221003120501 33 82 0.0 0.0 0.00 0.00 0.00 96 1027.8
20221003115502 32 80 0.0 0.0 0.00 0.00 0.00 96 1027.7
20221003115003 31 82 0.0 0.0 0.00 0.00 0.00 96 1027.8
20221003113501 31 82 0.0 0.0 0.00 0.00 0.00 95 1027.5
20221003112502 31 82 0.0 0.0 0.00 0.00 0.00 95 1027.5
20221003111502 31 83 0.0 0.0 0.00 0.00 0.00 95 1027.4
20221003111002 32 82 0.0 0.0 0.00 0.00 0.00 95 1027.3
20221003105501 32 82 0.0 0.0 0.00 0.00 0.00 96 1027.3
20221003104501 32 82 1.0 3.0 0.00 0.00 0.00 95 1027.4
20221003103502 31 82 1.0 2.0 0.00 0.00 0.00 95 1027.4
20221003102502 31 82 0.0 0.0 0.00 0.00 0.00 95 1027.3
20221003101501 32 82 0.0 0.0 0.00 0.00 0.00 95 1027.3
20221003101002 32 82 0.0 2.0 0.00 0.00 0.00 95 1027.3
20221003095501 32 82 1.0 2.0 0.00 0.00 0.00 95 1027.3
20221003094501 32 82 0.0 1.0 0.00 0.00 0.00 95 1027.3
20221003093500 32 81 0.0 2.0 0.00 0.00 0.00 95 1027.3
20221003092501 32 82 0.0 2.0 0.00 0.00 0.00 95 1027.3
20221003090502 32 81 0.0 0.0 0.00 0.00 0.00 95 1027.2
20221003085958 32 82 0.0 0.0 0.00 0.00 0.00 95 1027.2
20221003084457 32 82 0.0 0.0 0.00 0.00 0.00 94 1027.2
20221003083456 32 82 0.0 0.0 0.00 0.00 0.00 94 1027.0
20221003082455 33 81 0.0 0.0 0.00 0.00 0.00 94 1027.1
20221003081456 33 81 0.0 0.0 0.00 0.00 0.00 95 1027.1
20221003080456 33 82 0.0 0.0 0.00 0.00 0.00 95 1027.1
20221003075456 33 82 0.0 0.0 0.00 0.00 0.00 94 1027.1
20221003074457 33 82 0.0 0.0 0.00 0.00 0.00 95 1027.2
20221003073457 33 82 0.0 0.0 0.00 0.00 0.00 94 1027.3
20221003072454 33 82 0.0 0.0 0.00 0.00 0.00 94 1027.4
20221003071455 33 81 0.0 0.0 0.00 0.00 0.00 94 1027.4
20221003070454 33 82 0.0 0.0 0.00 0.00 0.00 94 1027.4
20221003065455 33 82 0.0 0.0 0.00 0.00 0.00 94 1027.5
20221003064455 33 81 0.0 0.0 0.00 0.00 0.00 95 1027.5
20221003063454 32 82 0.0 0.0 0.00 0.00 0.00 94 1027.5
20221003062452 33 81 0.0 0.0 0.00 0.00 0.00 94 1027.6
20221003061452 33 82 0.0 0.0 0.00 0.00 0.00 94 1027.7
20221003060451 33 82 0.0 0.0 0.00 0.00 0.00 94 1027.6
20221003055450 33 82 0.0 0.0 0.00 0.00 0.00 94 1027.8
20221003054449 33 83 0.0 0.0 0.00 0.00 0.00 93 1027.9
20221003053950 33 83 0.0 0.0 0.00 0.00 0.00 94 1027.9
20221003052446 34 83 0.0 0.0 0.00 0.00 0.00 93 1027.9
20221003051445 34 82 0.0 0.0 0.00 0.00 0.00 93 1028.0
20221003050447 34 82 0.0 0.0 0.00 0.00 0.00 94 1028.0
20221003045443 34 82 0.0 0.0 0.00 0.00 0.00 93 1028.0
20221003044444 34 82 0.0 0.0 0.00 0.00 0.00 93 1027.9
20221003043444 35 82 0.0 0.0 0.00 0.00 0.00 93 1028.1
20221003042443 35 82 0.0 0.0 0.00 0.00 0.00 93 1028.1
20221003041443 35 82 0.0 0.0 0.00 0.00 0.00 93 1028.1
20221003040444 36 82 0.0 0.0 0.00 0.00 0.00 93 1028.1
20221003035446 35 82 0.0 0.0 0.00 0.00 0.00 93 1028.1
20221003034444 35 82 0.0 0.0 0.00 0.00 0.00 93 1028.2
20221003033444 35 82 0.0 0.0 0.00 0.00 0.00 92 1028.2